www.pogodaiklimat.ru

Погода и климат >> Архив погоды >> Великобритания >> Лоссимут


ПОГОДА в Лоссимуте

  • Прогноз погоды в Лоссимуте
  • Монитор погоды в Лоссимуте

АРХИВ ПОГОДЫ в Лоссимуте

Время (UTC), дата Ветер
(напр.,м/с)
 
Видим.   Явления Облачность Т
(С)
Тd
(С)
f
(%)
Тe
(С)
Тes
(С)
Комфортность P
(гПа)
Po
(гПа)
Тmin
(С)
Tmax
(С)
R
(мм)
R24
(мм)
S
(см)
13 14.07 СЗ 3 45 км 9/9 900 м
[Cu Sc]
+15.5 +9.5 67 +15 +16 1026.2 1025.3
14 14.07 СЗ 4 50 км 8/8 840 м
[Cu Sc]
+15.8 +10.0 68 +15 +17 1026.1 1025.3
15 14.07 СЗ 4 35 км 9/8 900 м
[Cu Sc Ci fib]
+16.3 +9.7 65 +16 +17 1025.8 1025.0
16 14.07 СЗ 4 45 км 5/3 1000 м
[Sc Ci fib]
+16.9 +10.2 65 +17 +20 1025.5 1024.7
17 14.07 С 3 50 км 5/1 1050 м
[Sc Ci fib]
+16.1 +9.4 64 +16 +20 1025.3 1024.4
18 14.07 В 2 40 км 6/1 1000 м
[Sc Ci fib]
+16.5 +10.1 66 +17 +19 1024.8 1024.0 +17.0
19 14.07 ЮВ 2 50 км 5/1 1050 м
[Sc Ci fib]
+16.5 +10.2 66 +17 +17 1024.7 1023.9
20 14.07 В 4 60 км 3/1 900 м
[Sc Ci fib]
+14.2 +11.0 81 +13 +13 1024.7 1023.9
21 14.07 В 4 50 км 3/1 750 м
[Sc Ci fib]
+13.4 +10.9 85 +12 +12 1024.7 1023.9
22 14.07 В 3 50 км 3/1 750 м
[Sc Ci fib]
+12.8 +10.6 86 +12 +12 1024.7 1023.9
23 14.07 В 4 50 км 3/3 750 м
[Sc Ci fib]
+12.9 +10.8 87 +11 +11 1024.9 1024.0
00 15.07 В 4 50 км 5/5 660 м
[Sc]
+12.9 +10.3 84 +11 +11 1024.9 1024.1
01 15.07 Ю 2 50 км 6/6 420 м
[Sc]
+12.1 +10.0 87 +11 +11 1024.7 1023.8
02 15.07 ЮВ 1 50 км 6/6 450 м
[Sc]
+11.6 +9.8 89 +11 +11 1024.3 1023.4
03 15.07 ЮВ 1 40 км 3/3 480 м
[Sc]
+10.1 +9.3 95 +9 +9 1024.0 1023.1
04 15.07 ЮВ 1 40 км местами туман поземный 3/3 480 м
[Sc]
+9.4 +8.8 96 +10 +10 1023.8 1022.9
05 15.07 ЮВ 2 40 км 3/3 30 м
[Sc]
+8.8 +8.3 97 +7 +8 1023.5 1022.6
06 15.07 ЮВ 1 40 км 4/4 60 м
[Sc]
+9.7 +9.0 95 +10 +11 1023.2 1022.3 +8.7
07 15.07 ЮВ 2 25 км 1/1 60 м
[St]
+12.8 +10.7 87 +12 +16 1022.9 1022.1
08 15.07 СВ 3 30 км 3/3 360 м
[Cu hum]
+13.7 +10.7 82 +13 +17 1022.8 1022.0
09 15.07 В 3 50 км 1/1 360 м
[Cu hum]
+14.5 +10.7 78 +14 +21 1022.5 1021.6
10 15.07 В 3 30 км 1/1 540 м
[Cu hum]
+15.4 +11.2 76 +15 +23 1022.0 1021.2
11 15.07 В 4 50 км 1/1 750 м
[Cu hum]
+15.0 +10.9 76 +14 +23 1021.7 1020.8
12 15.07 СВ 4 60 км 1/1 750 м
[Cu hum]
+15.6 +12.3 81 +15 +23 1021.4 1020.6
13 15.07 В 5 60 км 1/1 750 м
[Cu hum Ci fib]
+16.0 +12.0 77 +15 +22 1021.3 1020.5
14 15.07 В 5 >70 км 1/1 900 м
[Cu Sc Ci fib]
+15.1 +11.5 79 +14 +19 1021.0 1020.2
15 15.07 В 5 60 км 1/1 900 м
[Cu Sc Ci fib]
+15.4 +11.6 78 +14 +20 1020.6 1019.7
16 15.07 В 5 >70 км 1/1 900 м
[Cu Sc Ac trans Ci fib]
+16.9 +11.5 70 +16 +20 1020.0 1019.1
17 15.07 В 5 60 км 3/1 1050 м
[Cu Sc Ci]
+16.1 +12.9 81 +15 +18 1019.4 1018.6
18 15.07 В 5 50 км 5/1 1200 м
[Sc Ac trans Ci fib]
+15.9 +12.3 79 +15 +16 1019.1 1018.3 +17.3
19 15.07 СВ 4 30 км 6/1 1200 м
[Cu med, cong Ac cuf Ci sp]
+15.1 +12.9 87 +14 +15 1019.0 1018.2
20 15.07 СВ 4 25 км 9/1 120 м
[St Ac cuf Ci]
+14.0 +12.4 90 +13 +13 1018.9 1018.0
21 15.07 СВ 3 15 км 9/9 120 м
[Sc Ci]
+13.9 +12.7 92 +13 +13 1019.1 1018.2
22 15.07 С 2 12 км 9/9 150 м
[Sc Ac As]
+13.6 +12.6 94 +13 +13 1018.9 1018.0
23 15.07 З 3 15 км 9/9 180 м
[St]
+13.7 +12.8 94 +12 +12 1018.7 1017.8
00 16.07 З 3 15 км 9/9 120 м
[St]
+13.5 +12.6 94 +12 +12 1018.4 1017.6
01 16.07 З 4 10 км 10/10 120 м
[St]
+13.5 +12.6 94 +12 +12 1018.2 1017.4
02 16.07 З 5 15 км 9/9 120 м
[St]
+13.4 +12.4 94 +11 +11 1017.9 1017.0
03 16.07 З 4 15 км 10/10 180 м
[St]
+13.4 +12.3 93 +12 +12 1017.6 1016.8
04 16.07 ЮЗ 3 18 км 10/10 180 м
[Sc]
+13.2 +12.1 93 +12 +12 1017.3 1016.5
05 16.07 З 2 20 км 10/4 180 м
[St Ac As Cs]
+12.3 +11.5 95 +12 +12 1017.1 1016.3
06 16.07 ЮЗ 1 35 км 9/1 180 м
[St Ac trans Cs]
+13.3 +12.0 92 +13 +14 1016.8 1016.0 +12.2
07 16.07 З 2 40 км 9/1 180 м
[St Ci fib]
+14.5 +12.4 87 +14 +17 1016.7 1015.9
08 16.07 ЮВ 2 50 км 9/1 180 м
[St Ac trans Cc]
+15.3 +11.9 80 +15 +19 1016.4 1015.6
09 16.07 СЗ 1 40 км 6/1 600 м
[Cu hum Ac As Ci fib]
+15.4 +13.0 86 +16 +23 1016.3 1015.5
10 16.07 ЮВ 1 40 км 5/1 180 м
[St Ac trans Ci fib]
+18.3 +13.1 72 +20 +29 1015.8 1015.0
11 16.07 С 2 50 км 6/1 900 м
[Cu hum Ac trans Ci fib]
+17.9 +13.8 77 +18 +27 1015.5 1014.6
12 16.07 СЗ 4 50 км 9/5 900 м
[Cu Sc Ac trans Ci fib]
+19.5 +14.2 71 +21 +24 комфорт 1015.4 1014.5
13 16.07 С 3 50 км 9/6 900 м
[Cu Sc Ac trans]
+17.9 +13.2 74 +18 +21 1015.2 1014.4
14 16.07 СЗ 3 40 км 9/8 900 м
[Cu Sc Ac trans Cs]
+18.7 +13.0 69 +20 +21 1014.9 1014.1
15 16.07 СЗ 3 40 км 9/6 1050 м
[Cu Sc Ac trans Ci fib]
+19.0 +14.2 74 +21 +23 комфорт 1014.9 1014.1
16 16.07 С 4 40 км 5/3 1050 м
[Cu Sc Ac trans Ci fib]
+18.9 +13.8 72 +20 +23 1014.8 1014.0
17 16.07 СВ 6 50 км 4/3 1050 м
[Cu Sc Ci fib]
+17.5 +13.2 76 +17 +18 1014.7 1013.9
18 16.07 В 6 30 км 6/3 1050 м
[Cu med, cong Ac trans Cs]
+16.4 +12.7 79 +15 +16 1014.6 1013.7 +20.2
19 16.07 В 4 30 км 4/1 1050 м
[Cu hum Ac cuf Ci fib]
+17.0 +12.4 74 +17 +17 1014.3 1013.4
20 16.07 В 3 30 км 4/4 1500 м
[Sc diur, vesp Ac trans Ci fib]
+16.3 +12.6 79 +16 +16 1014.1 1013.2
21 16.07 В 2 30 км 6/1 750 м
[Cu hum Ac trans Ci fib]
+15.5 +12.9 84 +16 +16 1014.2 1013.3
22 16.07 СВ 2 40 км 3/0
[Ac trans Ci fib]
+14.1 +12.0 87 +14 +14 1013.9 1013.1
23 16.07 ЮВ 2 30 км 4/0
[Ac trans Ci fib]
+14.2 +13.1 93 +14 +14 1013.7 1012.8
00 17.07 ЮВ 2 40 км 5/0
[Ac trans Cs]
+13.1 +12.4 96 +13 +13 1013.3 1012.4
01 17.07 Ю 1 20 км 9/0
[Ac trans Cs]
+13.3 +12.9 97 +13 +13 1012.7 1011.9
02 17.07 ЮВ 3 25 км 9/0
[As op Cs]
+13.8 +11.9 88 +13 +13 1011.8 1011.0
03 17.07 ЮВ 3 30 км 9/0 2000 м
[Ac As Cs]
+13.9 +11.8 87 +13 +13 1011.2 1010.4
04 17.07 СВ 1 20 км слаб. дождь 9/0
[As op Cs]
+14.6 +12.5 87 +15 +15 1010.7 1009.8
05 17.07 В 1 30 км в посл. час дождь 9/0
[Ac As Cs]
+14.5 +11.4 82 +16 +16 1009.9 1009.1
06 17.07 ЮВ 2 40 км {дождь} 10/1 1500 м
[Sc Ac trans]
+15.2 +12.7 85 +15 +16 1009.3 1008.5 +12.9 0.0
07 17.07 Ю 4 50 км 9/4 1500 м
[Sc Ac trans]
+17.5 +13.7 78 +17 +17 1008.7 1007.9
08 17.07 ЮВ 4 50 км слаб. дождь 9/4 1200 м
[Sc Ac trans]
+18.0 +13.5 75 +18 +19 1008.2 1007.4
09 17.07 ЮВ 4 50 км в посл. час дождь 9/4 600 м
[Cu Sc Ac As]
+18.9 +14.0 73 +20 +21 1007.6 1006.8
10 17.07 Ю 5 40 км 9/5 600 м
[Cu Sc Ac trans]
+19.6 +13.4 67 +21 +23 комфорт 1007.0 1006.2
11 17.07 Ю 2 30 км слаб. дождь 9/9 600 м
[Cu Sc]
+17.6 +14.5 82 +18 +19 1006.9 1006.0
12 17.07 ЮЗ 3 15 км дождь 10/5 1050 м
[Sc Ac trans]
+17.1 +14.6 85 +17 +19 1006.6 1005.8 1
13 17.07 ЮВ 3 35 км слаб. дождь 9/5 900 м
[Cu Sc Ac trans]
+17.6 +15.1 85 +18 +21 1005.9 1005.0
14 17.07 ЮВ 3 25 км слаб. дождь 10/10 900 м
[Sc]
+18.1 +14.5 79 +19 +19 1005.4 1004.6
15 17.07 ЮЗ 4 30 км слаб. дождь 10/10 900 м
[Sc]
+18.8 +13.7 72 +20 +20 1004.8 1004.0
16 17.07 Ю 4 35 км слаб. дождь 9/6 1050 м
[Sc Ac trans]
+18.2 +13.9 76 +18 +20 1004.1 1003.3
17 17.07 ЮВ 4 40 км слаб. дождь 9/4 1050 м
[Sc Ac As]
+17.9 +14.6 81 +18 +19 1003.5 1002.6
18 17.07 Ю 3 50 км в посл. час дождь 9/8 1260 м
[Sc Ac trans]
+18.3 +14.0 76 +19 +19 1003.1 1002.2 +21.8 3
19 17.07 ЮЗ 4 50 км 9/9 1230 м
[Sc]
+18.1 +12.9 72 +18 +18 1002.7 1001.9
20 17.07 ЮЗ 4 50 км 9/9 600 м
[Cu Sc]
+17.5 +12.9 74 +17 +17 1002.5 1001.7
21 17.07 ЮЗ 4 50 км 9/8 960 м
[Sc Ac trans]
+17.2 +12.9 76 +17 +17 1002.8 1001.9
22 17.07 ЮЗ 3 50 км осадки на расстоянии 9/9 960 м
[Sc Ac trans]
+16.1 +13.5 85 +16 +16 1002.7 1001.9
23 17.07 З 3 15 км слаб. дождь 9/9 300 м
[Sc]
+14.8 +13.6 93 +14 +14 1002.9 1002.1
00 18.07 ЮЗ 3 15 км дождь 9/9 600 м
[Sc]
+13.7 +11.4 86 +12 +12 1002.9 1002.1 2
01 18.07 ЮЗ 3 20 км в посл. час дождь 9/9 1080 м
[Sc]
+13.3 +12.1 92 +12 +12 1002.6 1001.8
02 18.07 Ю 2 25 км в посл. час дождь 9/9 1380 м
[Sc]
+13.1 +12.1 94 +13 +13 1002.6 1001.8
03 18.07 Ю 1 50 км {дождь} 5/5 450 м
[Sc]
+12.2 +10.9 92 +12 +12 1002.2 1001.3
04 18.07 Ю 1 50 км 4/3 1500 м
[Sc Ac trans]
+10.8 +9.7 93 +10 +10 1001.9 1001.0
05 18.07 Ю 3 50 км 1/1 1350 м
[Sc Ac trans]
+10.6 +9.4 92 +9 +9 1001.7 1000.8
06 18.07 ЮЗ 1 30 км {дождь} 8/1 300 м
[St Ac As Ci fib]
+12.6 +10.9 89 +13 +14 1001.4 1000.6 +9.9 2
07 18.07 Ю 2 30 км 8/1 450 м
[St Ac As Cs]
+14.3 +11.4 83 +14 +16 1001.5 1000.7
08 18.07 ЮЗ 2 60 км 9/1 480 м
[Cu Sc Ac As Cs]
+15.1 +11.8 81 +15 +18 1001.5 1000.7
09 18.07 ЮЗ 4 60 км 6/3 750 м
[Cu hum Ac As Cs]
+16.6 +11.5 72 +16 +20 1001.4 1000.6
10 18.07 З 7 60 км 6/4 870 м
[Cu Sc Ac cuf Cs]
+18.5 +11.0 62 +18 +20 1001.1 1000.3
11 18.07 ЮЗ 6 50 км 8/4 800 м
[Cb calv Ac cuf Cs]
+17.9 +11.3 65 +17 +19 1001.1 1000.3
12 18.07 ЮЗ 4 50 км 8/4 900 м
[Cb cap Ac cuf]
+18.6 +10.1 58 +19 +22 1000.9 1000.1
13 18.07 ЮЗ 5 35 км в посл. час ливневой дождь 8/4 900 м
[Cb cap Ac As]
+19.0 +11.7 63 +20 +22 1001.1 1000.3
14 18.07 З 5 35 км в посл. час ливневой дождь 8/5 900 м
[Cb cap Ac trans]
+19.6 +13.1 66 +21 +23 комфорт 1001.0 1000.2
15 18.07 З 5 50 км {ливн. осадки} 8/4 960 м
[Cb cap Ac cuf]
+18.0 +12.6 71 +18 +19 1001.0 1000.2
16 18.07 З 5 40 км слаб. ливневой дождь 8/4 840 м
[Cb cap Ac cuf Ci ing]
+17.4 +11.5 68 +17 +18 1001.2 1000.3
17 18.07 З 7 25 км ливневой дождь 8/5 900 м
[Sc diur, vesp Ac cuf]
+16.4 +11.4 72 +15 +15 1001.5 1000.7
18 18.07 З 6 35 км в посл. час ливневой дождь 9/5 900 м
[Cb cap Ac trans]
+17.1 +11.9 71 +16 +17 1001.9 1001.0 +20.0 3
19 18.07 З 6 35 км 8/6 900 м
[Cb cap Ac trans Ci fib]
+16.6 +10.9 69 +16 +16 1002.1 1001.3
20 18.07 ЮЗ 5 30 км 9/8 900 м
[Cu Sc Ac trans]
+15.8 +11.1 74 +15 +15 1002.8 1002.0
21 18.07 ЮЗ 4 30 км в посл. час ливневой дождь 8/6 900 м
[Cu Sc Ac trans Ci fib]
+14.3 +11.7 84 +13 +13 1003.5 1002.6
22 18.07 ЮЗ 5 30 км 6/5 900 м
[Cu Sc Ac trans Ci fib]
+13.4 +11.0 85 +12 +12 1003.7 1002.8
23 18.07 ЮЗ 3 50 км 4/0
[Ac As]
+12.0 +10.0 88 +10 +10 1003.8 1002.9
00 19.07 Ю 4 40 км {ливн. осадки} 3/0 2000 м
[Ac trans]
+11.5 +9.3 86 +9 +9 1004.0 1003.1 0.2
01 19.07 Ю 3 40 км 4/3 1350 м
[Sc Ac As]
+11.7 +9.2 85 +10 +10 1004.1 1003.3
02 19.07 Ю 3 50 км 3/1 1500 м
[Sc Ac trans]
+11.4 +9.0 85 +10 +10 1004.0 1003.2
03 19.07 Ю 2 30 км 8/8 1110 м
[Sc]
+10.8 +9.5 92 +10 +10 1004.0 1003.2
04 19.07 Ю 3 40 км 6/6 1170 м
[Sc Ac trans]
+12.0 +9.9 87 +11 +11 1004.0 1003.1
05 19.07 Ю 2 40 км 6/5 1050 м
[Cu Sc Ac trans Cs]
+11.4 +10.0 91 +10 +10 1004.1 1003.2
06 19.07 Ю 3 40 км 6/4 1000 м
[Sc Ac trans Ci fib]
+13.6 +11.0 84 +12 +13 1004.0 1003.2 +10.5 0.2
07 19.07 ЮЗ 4 40 км осадки на расстоянии 8/3 900 м
[Cu Sc Ac trans Ci sp]
+15.6 +11.8 78 +15 +16 1004.2 1003.3
08 19.07 ЮЗ 5 60 км 5/3 900 м
[Cu Sc Ac trans Ci sp]
+16.4 +11.3 72 +15 +17 1004.2 1003.4
09 19.07 ЮЗ 5 60 км 6/5 840 м
[Cu Sc Ac trans Ci sp]
+18.5 +11.1 62 +19 +21 1004.2 1003.4
10 19.07 ЮЗ 5 30 км слаб. ливневой дождь 9/8 900 м
[Cu Sc Ac As Ci sp]
+17.7 +10.9 64 +17 +18 1004.2 1003.4
11 19.07 З 6 6000 м ливневой дождь 10/10 840 м
[Cu Sc]
+15.7 +11.3 75 +14 +14 1004.4 1003.5
12 19.07 З 6 30 км в посл. час ливневой дождь 9/8 840 м
[Cu Sc Ac trans]
+17.5 +13.5 77 +17 +17 1004.3 1003.5 1
13 19.07 З 6 20 км слаб. ливневой дождь 9/6 720 м
[Cu Sc Ac As]
+16.3 +12.2 77 +15 +16 1004.4 1003.6
14 19.07 З 4 40 км в посл. час ливневой дождь 5/3 600 м
[Cu Sc Ac trans]
+19.4 +13.5 69 +21 +26 комфорт 1003.8 1003.0
15 19.07 В 5 30 км осадки на расстоянии {ливн. осадки} 6/5 750 м
[Cu Sc Ci sp]
+17.0 +12.0 72 +16 +19 1003.7 1002.9
17 19.07 В 5 30 км слаб. ливневой дождь 9/8 720 м
[Cu Sc Ac As]
+15.9 +13.0 83 +15 +15 1003.4 1002.6
18 19.07 В 4 30 км в посл. час ливневой дождь 8/4 1080 м
[Cu Sc Ac As Ci fib]
+15.8 +13.5 86 +15 +15 1002.9 1002.1 +19.8 4
19 19.07 В 6 50 км 9/5 1050 м
[Cu Sc Ac trans Cs]
+15.3 +12.9 86 +14 +14 1002.4 1001.6
20 19.07 В 4 50 км 9/5 1050 м
[Cu Sc Ac As Cs]
+15.9 +13.5 86 +15 +15 1002.0 1001.2
21 19.07 ЮВ 3 50 км 9/6 1200 м
[Cu Sc Ac trans]
+16.3 +12.9 80 +16 +16 1001.9 1001.1
22 19.07 В 4 40 км 9/9 1200 м
[Sc]
+16.3 +12.7 79 +16 +16 1001.5 1000.7
23 19.07 В 3 25 км слаб. дождь 9/5 1500 м
[Sc Ac As]
+15.1 +13.4 90 +15 +15 1001.3 1000.5
00 20.07 В 3 30 км в посл. час дождь 10/4 1350 м
[Sc Ac As]
+14.6 +13.2 91 +14 +14 1001.2 1000.3 0.2
01 20.07 В 3 25 км слаб. дождь 10/10 1350 м
[Sc]
+14.8 +13.5 92 +14 +14 1000.6 999.8
02 20.07 В 4 20 км в посл. час дождь 10/10 360 м
[Sc]
+15.0 +13.9 93 +14 +14 1000.1 999.3
03 20.07 В 4 20 км {дождь} 10/10 150 м
[St]
+14.9 +14.1 95 +14 +14 999.4 998.6
04 20.07 В 4 7000 м в посл. час дождь 10/10 90 м
[St]
+14.7 +14.2 97 +13 +13 998.7 997.9
05 20.07 В 4 7000 м дымка 10/10 120 м
[St]
+14.6 +14.0 96 +13 +13 998.5 997.7
06 20.07 СВ 1 7000 м дымка {дождь} 10/10 120 м
[St]
+14.7 +14.2 97 +15 +15 998.4 997.6 +14.6 1
07 20.07 СЗ 2 3500 м дождь {морось} 10/10 90 м
[St]
+14.9 +14.3 96 +15 +15 998.5 997.6
08 20.07 СЗ 4 4000 м дождь {морось} 10/10 60 м
[Frnb]
+14.5 +14.2 98 +13 +13 999.0 998.1
09 20.07 СЗ 4 7000 м дождь {морось} 9/9 60 м
[Cu Sc]
+14.8 +14.4 97 +14 +14 999.3 998.5
10 20.07 З 4 25 км в посл. час дождь 9/9 120 м
[Cu Sc]
+15.4 +14.7 96 +14 +15 999.8 999.0
11 20.07 З 5 40 км 9/6 270 м
[Cu Sc Ac trans]
+17.6 +15.9 90 +17 +19 1000.1 999.3
12 20.07 З 7 50 км {дождь, морось} 9/9 800 м
[Cu Sc Ac As]
+17.8 +15.0 84 +17 +17 1000.8 999.9 0.2
13 20.07 З 6 50 км 9/8 720 м
[Cu Sc Ac As]
+17.9 +14.3 79 +17 +18 1001.4 1000.5
14 20.07 З 9 30 км осадки на расстоянии 9/9 720 м
[Cu Sc Ac As]
+18.0 +14.1 78 +17 +17 1002.1 1001.3
15 20.07 З 8 30 км 6/3 960 м
[Cu Sc Ac trans Ci fib]
+17.9 +13.2 74 +17 +18 1003.0 1002.2
16 20.07 З 7 40 км 9/8 800 м
[Cu Sc Ac As]
+16.7 +12.3 75 +15 +16 1003.9 1003.1
17 20.07 З 5 50 км 9/9 840 м
[Cu Sc Ac As]
+16.8 +12.1 74 +16 +16 1004.5 1003.7
18 20.07 З 5 60 км 9/9 840 м
[Cu Sc]
+17.1 +11.5 70 +17 +17 1005.0 1004.2 +18.1 0.2
19 20.07 З 5 50 км 6/4 900 м
[Cu Sc Ac trans]
+17.1 +11.3 69 +17 +17 1005.5 1004.7
20 20.07 З 4 50 км 5/3 900 м
[Cu Sc Ac trans Ci fib]
+16.3 +11.0 71 +16 +16 1006.2 1005.4
21 20.07 З 3 >70 км 5/3 900 м
[Sc diur, vesp Ac trans Ci sp]
+14.6 +11.1 80 +14 +14 1007.3 1006.4
22 20.07 З 3 >70 км 5/4 900 м
[Sc Ac trans Ci sp]
+13.3 +10.6 84 +12 +12 1008.0 1007.2
23 20.07 З 4 50 км 4/1 1500 м
[Sc Ac trans]
+13.8 +10.8 82 +12 +12 1008.4 1007.6
00 21.07 ЮЗ 3 50 км 3/1 1500 м
[Sc Ac trans]
+11.1 +9.1 87 +9 +9 1008.9 1008.0
01 21.07 ЮЗ 3 40 км 6/6 1500 м
[Sc]
+12.4 +9.7 84 +11 +11 1009.0 1008.1
02 21.07 З 3 50 км 9/9 1500 м
[Sc]
+13.1 +9.6 79 +12 +12 1009.1 1008.3
03 21.07 ЮЗ 4 50 км 9/9 1500 м
[Sc]
+13.1 +10.3 83 +12 +12 1009.3 1008.4
04 21.07 ЮЗ 3 50 км 8/8 900 м
[Sc]
+13.6 +10.8 83 +12 +12 1009.3 1008.4
05 21.07 ЮЗ 2 50 км 6/5 1500 м
[Sc Ac trans Ci sp]
+12.5 +10.6 88 +12 +12 1009.8 1008.9
06 21.07 ЮЗ 2 40 км осадки на расстоянии 9/9 600 м
[Cu Sc]
+14.3 +11.8 85 +14 +14 1010.2 1009.3 +11.0
07 21.07 ЮЗ 4 40 км н/о +15.4 +11.7 79 +15 +15 1010.4 1009.6
08 21.07 ЮЗ 5 50 км 9/9 800 м
[Cu Sc Ci fib]
+17.1 +12.6 75 +16 +17 1010.8 1009.9
09 21.07 ЮЗ 4 45 км 9/9 660 м
[Cu Sc Ci fib]
+17.4 +11.8 70 +17 +18 1011.2 1010.3
10 21.07 ЮЗ 4 45 км 9/8 840 м
[Cu Sc Ci fib]
+18.6 +12.4 67 +19 +21 1011.3 1010.5
11 21.07 З 4 30 км осадки на расстоянии 9/9 960 м
[Cu Sc Ci fib]
+19.0 +11.3 61 +20 +21 1011.3 1010.5
12 21.07 С 2 40 км 9/9 1020 м
[Cu Sc Ci fib]
+18.0 +12.3 69 +19 +20 1011.2 1010.4

 

Местоположение метеостанции Лоссимут (Великобритания): широта 57.72 долгота -3.32 высота над уровнем моря 6 м.

В архиве по умолчанию представлена погода в Лоссимуте за последнюю неделю. Архивные данные за месяц целиком и за предыдущие месяцы, начиная с января 2011 года, Вы можете получить, выбрав интересующий диапазон дат из раскрывающегося списка и нажав кнопку "Ввод!".


*Определитесь, кто Вы:
робот инопланетянин человек

Внимание! Время в таблицах - всемирное. Для получения местного времени необходимо прибавить поправку, которая равна 0 ч.

Смотрите также архив погоды в соседних городах и на ближайших метеорологических станциях:

Погода в Кинлоссе (Великобритания) (17 км)
Погода в Тейн-Рендже (Великобритания) (40 км)
Погода на Авморе (Великобритания) (65 км)
Погода на Кайрнгорме (Великобритания) (69 км)
Погода в Абойне (Великобритания) (77 км)
Погода в Уике (Великобритания) (82 км)
Погода в Абердине (Великобритания) (88 км)
Погода на Алтнахарре (Великобритания) (90 км)
Погода на Озере Гласкарнок (Великобритания) (93 км)
Погода на Кэрнуэлле (Великобритания) (94 км)

Пояснения к столбцам:

Ветер - указаны скорость ветра в м/с - средняя за 10 мин, порывы в срок и между сроками (в фигурных скобках) и направление, откуда дует ветер: С - северный, СВ - северо-восточный, В - восточный, ЮВ - юго-восточный, Ю - южный, ЮЗ - юго-западный, З - западный, СЗ - северо-западный.
Видимость - горизонтальная дальность видимости в метрах или километрах. При видимости от 1 до 10 км при отсутствии осадков обычно наблюдается дымка, при ухудшении видимости до 1 км и менее - туман. В сухую погоду видимость может ухудшаться дымом, пылью или мглою.
Явления - указаны атмосферные явления, наблюдавшиеся в срок или в последний час перед сроком; фигурными скобками обозначены явления, наблюдавшиеся между сроками (за 1-3 часа до срока); квадратными скобками обозначены град или гололедные отложения с указанием их диаметра в мм.
Облачность - указаны через наклонную черту общая и нижняя облачность в баллах и высота нижней границы облаков в метрах; квадратными скобками обозначены формы облаков: Ci - перистые, Cs - перисто-слоистые, Cc - перисто-кучевые, Ac - высококучевые, As - высокослоистые, Sc - слоисто-кучевые, Ns - слоисто-дождевые, Cu - кучевые, Cb - кучево-дождевые. Подробнее классификацию облаков см. в Атласе облаков (PDF).
T - Температура воздуха - температура, измеренная на высоте 2 м над землей.
Td - Температура точки росы - температура, при понижении до которой содержащийся в воздухе водяной пар достигнет насыщения.
f - Относительная влажность воздуха - влажноcть воздуха, измеренная на высоте 2 м над землей.
Te - Эффективная температура - температура, которую ощущает одетый по сезону человек в тени. Характеристика душности погоды. При расчете учитывается влияние влажности воздуха и скорости ветра на теплоощущения человека.
Tes - Эффективная температура на солнце - температура, которую ощущает человек, с поправкой на солнечный нагрев. Характеристика знойности погоды. Зависит от высоты солнца над горизонтом, облачности и скорости ветра. Ночью, в пасмурную погоду, а также при ветре 12 м/с и более поправка равна нулю.
P - Атмосферное давление - приведенное к уровню моря атмосферное давление.
Po - Атмосферное давление - измеренное на уровне метеостанции атмосферное давление.
Tmin - Минимальная температура - минимум температуры воздуха на высоте 2 м над землей.
Tmax - Максимальная температура - максимум температуры воздуха на высоте 2 м над землей.
R - Количество осадков - Количество выпавших осадков за период времени, мм. При наведении курсора мыши на число - период времени, за который выпало указанное количество осадков.
R24 - Количество осадков - Количество выпавших осадков за 24 часа, мм.
S - Снежный покров - Высота снежного покрова, см. При наведении курсора мыши на число - состояние снежного покрова и степень покрытия местности в баллах.